Flag for Germany Weather past 2 weeks in Rendsburg, Schleswig-Holstein, Germany

Now
77 °F

Passing clouds.


Feels Like: 79 °F
Forecast: 59 / 84 °F
Wind: 10 mph from East

Location: Hohn

Current Time: Jul 1, 2015 at 7:42:05 PM

Latest Report: Jul 1, 2015 at 6:20 PM


Visibility: N/A

Pressure: 30.18 "Hg

Humidity: 47%

Dew point: 55 °F

Location of RendsburgLocation

Historic Weather in Rendsburg — Graph

°F

Rendsburg temperature yesterday

Maximum temperature yesterday: 70 °F (at 2:20 PM)
Minimum temperature yesterday: 52 °F (at 3:20 AM)
Average temperature yesterday: 61 °F

Past Weeks' High & Low Weather Summary

 TemperatureHumidityPressure
High79 °F (Jul 1, 4:20 PM)100% (Jun 17, 2:20 AM)30.24 "Hg (Jun 17, 2:20 AM)
Low39 °F (Jun 17, 1:20 AM)42% (Jul 1, 4:20 PM)29.62 "Hg (Jun 23, 1:20 AM)
Average57 °F80%30.00 "Hg
* Reported Jun 16 6:20 PM — Jul 1 6:20 PM, Rendsburg, Weather by CustomWeather, © 2015

Note: Actual official high and low records may vary slightly from our data, if they occured in-between our weather recording intervals... More about our weather records

Advertising

Rendsburg weather history for previous 24 hours

 ConditionsComfort  
Time TempWeatherWind HumidityBarometerVisibility
6:20 PM
Wed, Jul 1
77 °FPassing clouds.10 mph47%30.18 "HgN/A
5:20 PM79 °FPassing clouds.13 mph45%30.18 "HgN/A
4:20 PM79 °FPassing clouds.12 mph42%30.21 "HgN/A
3:20 PM77 °FPassing clouds.14 mph44%30.21 "HgN/A
2:20 PM77 °FPassing clouds.12 mph47%30.21 "HgN/A
1:20 PM73 °FPassing clouds.10 mph47%30.21 "HgN/A
12:20 PM73 °FPassing clouds.10 mph50%30.24 "HgN/A
11:20 AM72 °FPassing clouds.9 mph53%30.24 "HgN/A
10:20 AM68 °FMild.10 mph56%30.24 "HgN/A
9:20 AM66 °FMild.8 mph64%30.24 "HgN/A
8:20 AM64 °FMild.6 mph73%30.24 "HgN/A
7:20 AM59 °FCool.2 mph88%30.24 "HgN/A
6:20 AM52 °FFog.3 mph94%30.24 "HgN/A
5:20 AM50 °FFog.1 mph100%30.24 "HgN/A
5:00 AM50 °FFog.1 mph100%30.24 "Hg5 mi
4:20 AM50 °FCool.2 mph100%30.24 "Hg1 mi
3:20 AM50 °FCool.2 mph94%30.24 "Hg2 mi
2:20 AM52 °FCool.2 mph100%30.21 "Hg2 mi
1:20 AM54 °FCool.1 mph94%30.21 "Hg2 mi
12:20 AM54 °FCool.2 mph100%30.21 "Hg2 mi
11:20 PM
Tue, Jun 30
55 °FCool.No wind94%30.21 "Hg2 mi
10:20 PM59 °FCool.1 mph82%30.21 "Hg2 mi
9:20 PM64 °FMild.5 mph73%30.18 "Hg3 mi
8:20 PM68 °FMild.10 mph60%30.18 "Hg3 mi
Weather by CustomWeather, © 2015

See weather overviewHow to use our weather pages